< Cyclone 199806 1998 Season Cyclone 199808 >
Cyclone 199807 (VICTOR)
General InformationTrack Information on Google MapsDetailed Wind InformationList of All Images || ResourceGoogle EarthGE AnimationAtom FeedGeoJSON
Detalied Best Track (Time Zone = UTC)
Year Month Day Hour Lat. Long. Pressure (hPa) Wind (kt) Class Image Chart
1998 2 5 04 -12.8 133.6 1007 15 2 Image --
1998 2 6 04 -12.9 130.6 1007 15 2 Image --
1998 2 7 04 -13.2 128.3 1007 20 2 Image --
1998 2 8 04 -13.2 126.1 1008 20 2 Image --
1998 2 8 10 -13.6 125.3 1007 20 2 Image --
1998 2 8 16 -14.1 124.5 1007 20 2 Image --
1998 2 8 22 -14.4 123.7 1007 20 2 Image --
1998 2 9 04 -14.5 123.0 1005 20 2 Image --
1998 2 9 10 -14.7 122.3 1005 20 2 Image --
1998 2 9 16 -14.8 121.6 1005 20 2 Image --
1998 2 9 22 -15.0 120.9 1005 25 2 Image --
1998 2 10 04 -15.1 120.2 1003 25 2 Image --
1998 2 10 10 -15.3 119.4 1002 35 3 Image --
1998 2 10 16 -15.3 118.6 1000 35 3 Image --
1998 2 10 22 -15.3 117.6 1000 35 3 Image --
1998 2 11 04 -15.3 116.7 1000 35 3 Image --
1998 2 11 10 -15.3 115.7 995 40 3 Image --
1998 2 11 16 -15.1 114.6 990 40 3 Image --
1998 2 11 22 -14.9 113.6 980 55 4 Image --
1998 2 12 04 -15.0 112.6 975 60 4 Image --
1998 2 12 10 -15.3 111.7 970 70 5 Image --
1998 2 12 16 -15.9 110.6 970 80 5 Image --
1998 2 12 22 -16.4 109.3 975 85 5 Image --
1998 2 13 04 -17.0 108.1 980 75 5 Image --
1998 2 13 10 -17.4 106.8 980 60 4 Image --
1998 2 13 16 -17.7 105.4 980 55 4 Image --
1998 2 13 22 -18.0 104.0 985 50 4 Image --
1998 2 14 04 -18.4 102.4 985 50 4 Image --
1998 2 14 10 -18.6 100.6 990 40 3 Image --
1998 2 14 16 -18.9 98.8 995 35 3 Image --
1998 2 14 22 -19.4 97.0 1000 25 2 Image --
1998 2 15 04 -19.7 95.3 1005 20 2 Image --
1998 2 15 10 -20.1 93.5 1005 20 2 Image --
1998 2 15 16 -20.6 92.0 1010 20 2 Image --
1998 2 15 22 -21.0 90.6 1010 20 2 Image --
1998 2 16 04 -21.5 89.3 1010 20 2 Image --
1998 2 16 10 -21.5 87.7 1010 20 2 Image --
1998 2 16 16 -21.3 85.9 1010 20 2 Image --
1998 2 16 22 -21.2 84.1 1010 20 2 Image --
1998 2 17 04 -21.0 82.2 1010 20 2 Image --
< Cyclone 199806 1998 Season Cyclone 199808 >

Help